Vertical_Velocity
-2 0 -3 -3 1 2 -1 1 3 2 0 -0 0 0 -4 -0 -0 1 6 2 1 2 -0 3 -7 -5 -0 -5 -0 -2 1 -0
-5 1 -1 -3 -1 0 1 3 4 3 -1 2 4 2 0 -2 -1 1 3 1 3 -4 -1 -2 -0 -0 -2 1 -1 -1 0 3
-1 -2 2 1 4 4 4 3 -1 3 3 4 -4 1 -2 6 0 -3 -0 0 -1 0 1 1 1 -2 -0 -1 2 1 1 0
-3 -2 1 -1 -4 -2 0 -0 -1 2 1 -2 7 2 -1 -2 0 0 2 -6 -1 1 0 0 0 -1 -2 1 1 1 3 3
-1 -4 -4 -0 5 1 2 -1 1 -0 4 1 3 0 -6 2 7 -1 -3 1 -2 1 1 0 1 0 2 -0 -0 2 1 -3
0 0 4 1 -2 -0 2 3 2 2 1 -2 0 -1 4 1 4 5 1 -3 0 2 1 1 1 1 3 4 7 4 4 -8
5 4 -0 3 1 2 2 4 -0 -2 0 2 0 1 4 2 5 2 1 4 1 1 1 2 0 0 2 1 -6 -1 -7 3
4 -1 1 2 2 4 3 2 6 2 3 7 8 3 3 1 3 2 0 4 3 -0 0 1 1 3 3 -5 8 5 -3 -0
-3 7 4 3 2 2 4 1 4 10 6 -2 3 1 2 0 0 3 3 1 4 2 4 2 2 5 -3 -1 0 -3 1 2
-2 -4 -2 7 4 2 3 3 6 2 13 6 2 2 1 -1 3 4 1 5 1 7 4 -5 0 -1 7 -2 0 -1 0 -2
-1 -3 -3 -6 2 4 2 2 2 -0 -1 1 1 1 1 -2 3 4 6 2 -1 -8 -1 6 2 -2 -7 6 -0 11 9 -1
-1 0 -0 -1 -2 -2 0 1 3 0 -2 -1 -3 -1 -1 -0 1 2 -4 -1 0 2 4 1 4 -4 9 -1 -1 2 7 -1
-3 -2 -0 -2 -1 -1 -5 -2 -3 -2 0 -1 5 -2 4 -1 -0 -6 1 -0 1 2 0 8 32 -7 -3 1 1 19 -2 -3
-1 1 1 -1 -2 -2 -4 -3 -0 2 1 -5 0 4 4 5 10 4 8 4 3 1 -3 -0 21 -3 1 5 -1 1 -0 1
-0 -1 0 -3 -3 1 -2 -3 -3 1 2 4 1 3 5 10 7 6 6 8 2 -4 2 5 3 -3 24 -4 3 2 1 1
1 2 1 1 1 -1 -2 -1 -1 -1 2 1 2 3 2 1 2 0 -1 -0 -9 -5 22 -6 2 14 8 6 -2 -3 -1 1
3 5 0 1 3 4 3 3 2 3 2 2 3 -1 -1 1 0 -0 0 0 0 3 -2 13 8 -2 -2 1 0 0 1 -2
1 3 4 3 2 1 -0 -0 -1 -3 -4 -3 -2 -0 0 -0 -1 -1 -3 -4 9 2 13 1 4 2 -1 -2 -2 1 -1 -1
3 0 1 1 0 -0 -0 -2 -2 -1 -1 -0 -1 -2 -0 1 0 -2 -5 6 14 4 1 1 1 -1 -2 -0 1 0 0 3
Height
3134 3135 3137 3139 3141 3142 3145 3147 3149 3151 3153 3156 3158 3160 3162 3163 3165 3166 3167 3169 3169 3169 3168 3167 3166 3166 3165 3165 3164 3163 3162 3160
3135 3136 3139 3140 3142 3144 3147 3148 3150 3152 3155 3157 3158 3159 3161 3161 3162 3163 3164 3165 3165 3165 3164 3163 3162 3162 3162 3161 3160 3158 3157 3155
3136 3137 3139 3141 3143 3145 3147 3148 3150 3152 3154 3156 3157 3157 3158 3158 3159 3160 3161 3160 3161 3159 3159 3158 3158 3158 3158 3156 3155 3153 3151 3148
3135 3137 3138 3139 3141 3143 3145 3147 3149 3151 3152 3152 3153 3154 3156 3157 3157 3156 3155 3155 3156 3156 3155 3154 3154 3153 3152 3151 3149 3147 3145 3143
3133 3134 3136 3138 3140 3141 3143 3144 3145 3147 3148 3150 3152 3152 3153 3153 3152 3151 3150 3151 3151 3151 3150 3150 3149 3148 3147 3145 3143 3141 3139 3135
3130 3132 3134 3136 3138 3139 3140 3141 3143 3144 3145 3146 3147 3147 3148 3148 3147 3146 3146 3146 3146 3146 3146 3145 3144 3143 3141 3140 3138 3134 3132 3130
3127 3129 3131 3133 3134 3135 3136 3136 3138 3139 3139 3140 3141 3142 3143 3142 3142 3141 3141 3141 3141 3141 3140 3139 3137 3136 3135 3133 3130 3127 3123 3120
3122 3124 3127 3129 3130 3132 3133 3133 3133 3135 3135 3135 3137 3137 3137 3137 3136 3135 3136 3135 3136 3135 3134 3133 3132 3130 3127 3125 3121 3117 3115 3111
3113 3117 3121 3124 3126 3128 3129 3130 3130 3131 3132 3132 3132 3133 3132 3130 3129 3130 3129 3130 3130 3128 3128 3126 3124 3122 3119 3115 3110 3109 3105 3101
3108 3110 3113 3117 3120 3123 3124 3125 3126 3127 3126 3127 3127 3126 3125 3124 3124 3123 3123 3123 3123 3121 3119 3117 3116 3113 3110 3107 3103 3100 3097 3093
3104 3106 3108 3110 3113 3116 3118 3119 3121 3121 3121 3121 3121 3120 3119 3118 3117 3117 3116 3114 3113 3111 3111 3110 3108 3105 3101 3098 3094 3091 3088 3084
3100 3102 3104 3105 3108 3110 3112 3114 3116 3116 3116 3116 3114 3113 3112 3111 3110 3109 3107 3106 3105 3105 3103 3102 3099 3095 3091 3088 3086 3082 3078 3074
3099 3100 3101 3104 3106 3108 3110 3111 3111 3111 3111 3110 3109 3108 3106 3105 3103 3102 3101 3100 3099 3097 3095 3093 3087 3087 3083 3080 3076 3071 3068 3065
3098 3099 3100 3102 3103 3105 3106 3106 3107 3106 3105 3104 3103 3101 3100 3098 3097 3096 3095 3092 3091 3089 3086 3082 3075 3077 3075 3070 3066 3062 3058 3054
3094 3095 3097 3098 3099 3101 3101 3101 3101 3100 3098 3097 3095 3093 3092 3090 3089 3088 3086 3085 3082 3080 3078 3076 3072 3069 3064 3060 3057 3052 3048 3044
3089 3090 3092 3093 3095 3095 3095 3094 3094 3093 3091 3089 3087 3086 3084 3082 3080 3078 3077 3075 3072 3071 3066 3065 3062 3058 3054 3050 3046 3043 3039 3036
3084 3084 3085 3087 3088 3088 3089 3088 3087 3086 3084 3083 3080 3078 3076 3074 3072 3069 3068 3067 3064 3061 3057 3054 3051 3050 3046 3041 3037 3034 3030 3029
3079 3079 3081 3081 3081 3081 3081 3080 3079 3078 3076 3074 3072 3069 3067 3064 3062 3061 3060 3058 3055 3053 3048 3046 3044 3040 3035 3031 3027 3026 3024 3020
3073 3075 3076 3076 3076 3076 3075 3073 3071 3069 3068 3066 3063 3061 3059 3056 3054 3054 3052 3049 3046 3043 3041 3038 3034 3030 3025 3023 3021 3017 3013 3010